Погода в Вогнеме

Россия / Вологодская область     59°58′32″N   38°09′19″E
темп.,
°C
ветер,
м/с
пор.,
м/с
влажн.,
%
обл.,
%
осадки,
мм/ч
давл.,
гПа
погр.,
м
18 мая, вт
вт1800:00+15вюв4128476 0.0 1014318
03:00+15вюв41485100 0.0 1013378
06:00+15вюв4128533 0.3 1012352
09:00+20юв510724 0.3 1012477
12:00+26юв510480 0.0 10111211
15:00+28ююв511411 0.0 10112780
18:00+25юв5104829 0.0 10101151
21:00+20юв4157081 0.0 1011520
19 мая, ср
ср1900:00+18юв3148530 0.0 1011421
03:00+16юв412925 0.0 1011330
06:00+18юв412845 0.0 1011394
09:00+23юв511585 0.0 1010763
12:00+28юв6144160 0.0 10092260
15:00+29юв614391 0.0 10093656
18:00+26ююв412514 0.0 10082460
21:00+21юв4136623 0.1 1009661
20 мая, чт
чт2000:00+19юв41479100 0.1 1009583
03:00+18вюв4108497 0.8 1008374
06:00+17юв4990100 0.4 1009384
09:00+21юв4666100 0.4 1009648
12:00+26юв59490 0.0 10071188
15:00+27юв611470 0.0 10052682
18:00+22ю61266100 0.6 10051374
21:00+17юв311891 0.8 1005632
21 мая, пт
пт2100:00+16юв411935 0.0 1004552
03:00+14юв411915 0.0 1003605
06:00+14ююв41087100 0.0 1003840
09:00+15ю6970100 0.1 10041120
12:00+13ю4875100 0.0 1005875
15:00+12з4981100 0.1 1007677
18:00+14з3767100 0.1 10081100
21:00+11ююз248011 0.1 100968
22 мая, сб
сб2200:00+10юз311692 0.0 1011437
03:00+8юз310815 0.0 1013293
06:00+9юз310740 0.0 1013371
09:00+13юз59451 0.0 10151498
12:00+16зюз583912 0.0 10152045
15:00+17з3640100 0.0 10151964
18:00+17ююз3643100 0.0 10151865
21:00+11ююв377586 0.0 1015128